Regional Weather Roundup
Issued by NWS Northern Indiana

Home | Current Version | Previous Version | Text Only | Print | Product List | Glossary Off
Versions: 1 2 3 4 5 6 7 8 9 10 11 12 13 14 15 16 17 18 19 20 21 22 23 24 25 26 27 28 29 30 31 32 33 34 35 36 37 38 39 40 41 42 43 44 45 46 47 48 49 50

783
ASUS43 KIWX 011110
RWRIWX

KIWX WEATHER ROUNDUP
NATIONAL WEATHER SERVICE NORTHERN INDIANA
700 AM EDT SAT OCT 01 2016

NOTE: "FAIR" INDICATES FEW OR NO CLOUDS BELOW 12,000 FEET WITH NO
SIGNIFICANT WEATHER AND/OR OBSTRUCTIONS TO VISIBILITY.

* THESE STATIONS ARE NOT UNDER NWS QUALITY CONTROL. THEY ALSO MAY NOT
  REPORT WEATHER SUCH AS PRECIPITATION OR FOG.

INZ001>027-011200-
NORTHERN INDIANA

CITY           SKY/WX    TMP DP  RH WIND       PRES   REMARKS
GARY*          LGT RAIN  63  61  94 N3        30.01F
VALPARAISO     LGT RAIN  59  57  93 N3        30.00F
MICHIGAN CITY* HVY RAIN  57  57 100 CALM      30.00F VSB 1
LAPORTE*       TSTM     N/A N/A N/A N3        30.01S
KNOX*          CLOUDY    57  50  77 CALM      29.99F
SOUTH BEND     RAIN      57  56  96 NE7       30.01S FOG
GOSHEN         CLOUDY    60  57  89 E8        29.99S
MONTICELLO*    CLOUDY    57  53  88 CALM      29.99R
LOGANSPORT*    LGT RAIN  55  55 100 CALM      30.01R
ROCHESTER*     RAIN      61  61 100 CALM      30.00S
WARSAW*        CLOUDY    57  55  94 CALM      29.99S
ANGOLA*          N/A     57  48  72 E5        30.00F
FORT WAYNE     CLOUDY    58  57  97 S9        30.01R FOG
HUNTINGTON*    CLOUDY    58  57  96 S6        30.00R FOG
PERU/GRISSOM   CLOUDY    58  58 100 S5        29.98S
MARION*        CLOUDY    55  54  99 CALM      30.01S FOG

$$
INZ028>050-011200-
CENTRAL INDIANA

CITY           SKY/WX    TMP DP  RH WIND       PRES   REMARKS
LAFAYETTE      CLOUDY    57  57 100 CALM      29.99R
KOKOMO*        CLOUDY    57  56  96 S5        30.01S FOG
MUNCIE*        CLOUDY    56  53  90 S3        30.01S
INDIANAPOLIS   PTCLDY    52  51  97 CALM      30.00R

$$
MIZ043>046-050>051-056>058-064>065-071>073-077>080-011200-
SOUTHWEST LOWER MICHIGAN

CITY           SKY/WX    TMP DP  RH WIND       PRES   REMARKS
BATTLE CREEK   CLOUDY    58  57  97 E6        30.04R
BENTON HARBOR  CLOUDY    60  57  89 NE7       30.01S
COLDWATER*     CLOUDY    58  58 100 E8        30.02S
HILLSDALE*     CLOUDY    57  55  94 E7        30.02S FOG
HOLLAND        LGT RAIN  58  56  93 NE7       30.05S
GRAND RAPIDS   LGT RAIN  57  55  93 NE9       30.05F FOG
KALAMAZOO      LGT RAIN  58  56  93 VRB3      30.04R
STURGIS*       CLOUDY    59  57  94 E7        30.00S
THREE RIVERS*  CLOUDY    59  58  97 NE7       30.02S

$$
OHZ001>008-015>018-024>025-011200-
NORTHWEST OHIO

CITY           SKY/WX    TMP DP  RH WIND       PRES   REMARKS
WAUSEON*       CLOUDY    59  59 100 E9        30.02S FOG
DEFIANCE       CLOUDY    61  58  90 SE8       30.02R
FINDLAY        CLOUDY    58  54  86 SE7       30.03R
TOLEDO EXPRESS CLOUDY    59  59 100 CALM      30.03S
TOLEDO METCALF CLOUDY    60  59  96 E6        30.04S
LIMA           CLOUDY    54  54 100 SE6       30.03R

$$
AND FOR LAKE MICHIGAN COASTAL AND OPEN LAKE BUOY OBSERVATIONS

STATION/POSITION TEMP    WIND        PRES    VSBY  WAVE
                 AIR SEA DIR/SP/G                  HT/PER
                 (F)     (DEG/KT/KT) (MB)    (MI)  (FT/S)
CALUMET HARBOR    60     300/  2/  3 1015.8F
MICHIGAN CITY     61      10/ 12/ 14   N/A
BURNS HARBOR      62      50/ 10/ 13 1016.3F
SAINT JOSEPH      56      20/  4/  6 1017.3
SOUTH LAKE BUOY   63 67   60/ 14/ 14 1016.5F         3/ 6
4 MI NW BRIDGMAN  53 51   40/  8/ 10 1016.5          3/ 6
MICHIGAN CITY     62 64   30/ 10/ 14   N/A           3/ 6

$$
&&




USA.gov is the U.S. government's official web portal to all federal, state and local government web resources and services.